Change the Weather History Date:

Thursday, February 14, 2013

  Actual Average Record
Temperature  
Mean Temperature 34 °F -  
Max Temperature 39 °F 31 °F 48 °F (1970)
Min Temperature 30 °F 17 °F -7 °F (1954)
Degree Days  
Heating Degree Days 30    
Moisture  
Dew Point 28 °F    
Average Humidity 79    
Maximum Humidity 93    
Minimum Humidity 65    
Precipitation  
Precipitation 0.05 in - - ()
Sea Level Pressure  
Sea Level Pressure 29.36 in    
Wind  
Wind Speed 5 mph (NE)    
Max Wind Speed 21 mph    
Max Gust Speed 34 mph    
Visibility 7 miles    
Events Rain , Snow    
Averages and records for this station are not official NWS values.
T = Trace of Precipitation, MM = Missing Value Source: NWS Daily Summary

Daily Weather History Graph

Daily Weather History Graph

Search for Another Location

Airport or City:

Trip Planner

Search our weather history database for the weather conditions in past years. The results will help you decide how hot, cold, wet, or windy it might be!

Date:

Astronomy

Feb. 14, 2013 Rise Set
Actual Time 8:43 AM AKST 5:57 PM AKST
Civil Twilight 8:00 AM AKST 6:40 PM AKST
Nautical Twilight 7:12 AM AKST 7:29 PM AKST
Astronomical Twilight 6:24 AM AKST 8:16 PM AKST
Moon 9:27 AM AKST (2/14) No Moon Set
Length of Visible Light 10h 40m
Length of Day
9h 13m
Waxing Crescent, 23% of the Moon is Illuminated
Feb 14
Waxing Crescent
Feb 17
First Quarter
Feb 25
Full
Mar 4
Last Quarter
Mar 11
New

Hourly Weather History & Observations

Time (AKST) Temp. Windchill Dew Point Humidity Pressure Visibility Wind Dir Wind Speed Gust Speed Precip Events Conditions
12:53 AM 39.0 °F - 28.0 °F 65% 29.52 in 10.0 mi Calm Calm - N/A   Partly Cloudy
1:53 AM 37.9 °F 33.5 °F 30.0 °F 73% 29.51 in 10.0 mi East 5.8 mph - N/A   Overcast
3:53 AM 37.0 °F - 30.0 °F 76% 29.47 in 10.0 mi Calm Calm - N/A   Overcast
4:53 AM 34.0 °F - 28.9 °F 82% 29.42 in 10.0 mi Calm Calm - N/A   Overcast
5:53 AM 35.1 °F - 28.9 °F 78% 29.38 in 10.0 mi Calm Calm - N/A   Overcast
6:53 AM 37.0 °F 32.4 °F 30.0 °F 76% 29.33 in 10.0 mi NE 5.8 mph - N/A   Mostly Cloudy
7:53 AM 37.9 °F 35.5 °F 30.0 °F 73% 29.29 in 10.0 mi North 3.5 mph - 0.00 in Rain Light Rain
8:53 AM 37.9 °F 31.5 °F 30.0 °F 73% 29.23 in 10.0 mi NNE 9.2 mph 20.7 mph 0.00 in Rain Light Rain
9:53 AM 37.9 °F 29.2 °F 30.9 °F 76% 29.18 in 9.0 mi NNE 15.0 mph 21.9 mph 0.00 in Rain Light Rain
10:53 AM 37.9 °F 27.6 °F 28.9 °F 70% 29.14 in 10.0 mi NNE 20.7 mph 27.6 mph 0.01 in Rain Light Rain
11:53 AM 36.0 °F 25.0 °F 27.0 °F 70% 29.14 in 2.5 mi North 20.7 mph 33.4 mph 0.00 in Snow Light Snow
12:00 PM 35.6 °F 24.5 °F 26.6 °F 70% 29.14 in 3.0 mi North 20.7 mph 34.5 mph 0.00 in Snow Light Snow
12:29 PM 35.6 °F 26.2 °F 26.6 °F 70% 29.16 in 3.0 mi NE 15.0 mph 34.5 mph 0.00 in   Haze
12:53 PM 35.1 °F 27.4 °F 28.0 °F 76% 29.18 in 10.0 mi ENE 10.4 mph - 0.00 in   Overcast
1:53 PM 34.0 °F 28.0 °F 28.0 °F 79% 29.22 in 6.0 mi East 6.9 mph - 0.00 in Snow Light Snow
2:53 PM 33.1 °F - 28.9 °F 85% 29.25 in 0.8 mi Calm Calm - 0.01 in Snow Light Snow
3:02 PM 33.8 °F 29.6 °F 28.4 °F 81% 29.25 in 1.0 mi East 4.6 mph - 0.00 in Snow Light Snow
3:39 PM 33.8 °F 30.8 °F 28.4 °F 81% 29.26 in 4.0 mi East 3.5 mph - 0.00 in Snow Light Snow
3:53 PM 33.1 °F - 28.9 °F 85% 29.27 in 6.0 mi Calm Calm - 0.01 in   Overcast
4:46 PM 33.8 °F - 30.2 °F 87% 29.30 in 7.0 mi Calm Calm - 0.00 in Snow Light Snow
4:53 PM 33.1 °F - 28.9 °F 85% 29.31 in 9.0 mi Calm Calm - 0.00 in   Overcast
5:53 PM 33.1 °F 26.9 °F 26.1 °F 75% 29.36 in 10.0 mi North 6.9 mph - N/A   Overcast
6:53 PM 33.1 °F - 27.0 °F 78% 29.40 in 10.0 mi Calm Calm - N/A   Mostly Cloudy
7:41 PM 33.8 °F - 26.6 °F 75% 29.43 in 10.0 mi Calm Calm - N/A   Mostly Cloudy
7:53 PM 33.1 °F - 26.1 °F 75% 29.44 in 10.0 mi Calm Calm - N/A   Scattered Clouds
8:53 PM 30.0 °F - 26.1 °F 85% 29.46 in 10.0 mi Calm Calm - N/A   Mostly Cloudy
9:34 PM 32.0 °F - 28.4 °F 87% 29.48 in 7.0 mi Calm Calm - N/A   Overcast
9:43 PM 32.0 °F - 28.4 °F 87% 29.48 in 2.5 mi Calm Calm - 0.00 in Snow Light Snow
9:47 PM 32.0 °F - 28.4 °F 87% 29.49 in 1.5 mi Calm Calm - 0.00 in Snow Light Snow
9:53 PM 32.0 °F - 28.0 °F 85% 29.49 in 1.2 mi Calm Calm - 0.00 in Snow Light Snow
10:08 PM 32.0 °F - 28.4 °F 87% 29.50 in 2.5 mi Calm Calm - 0.01 in Snow Light Snow
10:24 PM 32.0 °F - 30.2 °F 93% 29.50 in 2.0 mi Calm Calm - 0.01 in Snow Light Snow
10:32 PM 33.8 °F - 30.2 °F 87% 29.50 in 3.0 mi Calm Calm - 0.01 in   Overcast
10:53 PM 34.0 °F 25.0 °F 28.0 °F 79% 29.51 in 10.0 mi SW 12.7 mph 17.3 mph 0.02 in   Overcast
11:53 PM 33.1 °F 23.4 °F 26.1 °F 75% 29.54 in 10.0 mi SW 13.8 mph - N/A   Overcast